Location: Riedlingen
(48.1569°N, 9.4757°E)
Time: 02:47:17
(UTC+02:00)

ISS - Pass Details

Date: 14 May 2021
Orbit: 417 x 422 km, 51.6° (Epoch: 15 June)

Event Time Altitude Azimuth Distance (km) Brightness Sun altitude
Exits shadow 02:50:38 - 291° (WNW) 1,711 -0.7 -20.1°
Reaches altitude 10° 02:51:09 10° 293° (WNW) 1,508 -1.0 -20.1°
Maximum altitude 02:54:28 51° 11° (N) 537 -2.9 -19.8°
Drops below altitude 10° 02:57:47 10° 89° (E) 1,508 -0.6 -19.6°
Sets 02:59:55 0° 94° (E) 2,372 0.3 -19.5°
